P/2013 TL117 ( Lemmon )

Japanese version
Home page
Updated on May 7, 2015

---------------------------------------------------------------------

* Profile

Discovery Date October 4, 2013
Magnitude 20.1 mag
Discoverer J. A. Johnson (Mount Lemmon Survey)

* Pictures

* Orbital Elements

Epoch 2014 Mar. 4.0 TT = JDT 2456720.5
T 2014 Feb. 18.21810 TT                                 MPC
q   1.1176736            (2000.0)            P               Q
n   0.14402321     Peri.  112.19973     -0.43073581     -0.90242765
a   3.6045223      Node     3.36047     +0.75645204     -0.36678474
e   0.6899246      Incl.    9.36572     +0.49218591     -0.22603824
P   6.84
From 490 observations 2013 Oct. 4-2014 May 24, mean residual 0".5.

* Finding Charts

* Magnitudes Graph

        m1 = 17.0 + 5 log d + 10.0 log r

---------------------------------------------------------------------

The orbital elements are published on M.P.E.C. 2014-L52.
The charts are made with StellaNavigator Ver.8 (AstroArts).
The magnitudes graphs are made with Comet for Windows.

---------------------------------------------------------------------

Copyright(C) Seiichi Yoshida (comet@aerith.net). All rights reserved.